www.pogodaiklimat.ru

Погода и климат >> Архив погоды >> Италия >> Мартина-Франка


ПОГОДА в Мартина-Франка

  • Прогноз погоды в Мартина-Франка
  • Монитор погоды в Мартина-Франка

АРХИВ ПОГОДЫ в Мартина-Франка

Время (UTC), дата Ветер
(напр.,м/с)
 
Видим.   Явления Облачность Т
(С)
Тd
(С)
f
(%)
Тe
(С)
Тes
(С)
Комфортность P
(гПа)
Po
(гПа)
Тmin
(С)
Tmax
(С)
R
(мм)
R24
(мм)
S
(см)
22 16.01 З 1 н/о н/о +0.9 -1.2 86 0 0 1025.3 969.6
23 16.01 штиль 0 н/о н/о +1.1 -0.7 88 -0 -0 1025.1 969.4
00 17.01 штиль 0 н/о н/о +1.4 -0.2 89 0 0 1024.5 968.9
01 17.01 штиль 0 н/о н/о +1.5 0.0 90 0 0 1024.2 968.6
02 17.01 Ю 1 н/о н/о +1.1 -0.4 90 +1 +1 1024.2 968.6
03 17.01 Ю 1 н/о н/о +1.9 +0.6 91 0 0 1023.5 968.1
04 17.01 Ю 1 н/о н/о +3.0 +1.7 91 +1 +1 1022.9 967.7
05 17.01 ЮЗ 1 н/о н/о +2.4 +0.9 90 +1 +1 1022.8 967.5
06 17.01 штиль 0 н/о н/о +1.2 -0.9 86 0 0 1023.2 967.6 +0.5 0
07 17.01 ЮЗ 1 н/о н/о +2.6 +0.9 89 +2 +2 1022.7 967.4
08 17.01 Ю 1 н/о н/о +4.7 +3.2 90 +3 +3 1022.4 967.6
09 17.01 Ю 1 н/о н/о +7.2 +4.8 85 +6 +6 1022.1 967.8
10 17.01 Ю 2 н/о н/о +9.5 +3.8 68 +8 +8 1021.9 968.0
11 17.01 Ю 2 н/о н/о +11.4 +2.6 55 +11 +11 1020.7 967.1
12 17.01 Ю 3 н/о н/о +11.5 +2.4 54 +10 +10 1019.8 966.4
13 17.01 Ю 2 н/о н/о +11.9 +2.5 53 +11 +11 1019.2 965.9
14 17.01 Ю 2 н/о н/о +11.9 +3.6 57 +12 +12 1019.1 965.7
16 17.01 Ю 1 н/о н/о +7.3 0.0 60 +8 +8 1019.5 965.2
17 17.01 штиль 0 н/о н/о +5.3 +1.4 76 +5 +5 1020.0 965.4
18 17.01 СВ 1 н/о н/о +5.1 +2.8 85 +5 +5 1020.0 965.4 +12.7
19 17.01 штиль 0 н/о н/о +4.9 +3.4 90 +4 +4 1019.9 965.3
20 17.01 Ю 1 н/о н/о +5.7 +4.5 92 +4 +4 1019.8 965.3
22 17.01 Ю 1 н/о н/о +5.8 +4.7 93 +4 +4 1019.3 964.9
23 17.01 Ю 2 н/о н/о +6.6 +5.7 94 +4 +4 1019.0 964.7
00 18.01 Ю 2 н/о н/о +7.2 +6.3 94 +5 +5 1018.3 964.2
01 18.01 Ю 2 н/о н/о +7.2 +6.3 94 +5 +5 1018.2 964.0
02 18.01 Ю 2 н/о н/о +6.6 +5.7 94 +5 +5 1018.0 963.8
04 18.01 Ю 2 н/о н/о +5.9 +4.8 93 +4 +4 1016.6 962.3
05 18.01 ЮВ 1 н/о н/о +6.8 +5.6 92 +6 +6 1016.3 962.1
06 18.01 ЮВ 2 н/о н/о +6.9 +5.8 93 +5 +5 1016.5 962.4 +4.7 503
07 18.01 Ю 2 н/о н/о +7.1 +6.0 93 +5 +5 1016.5 962.4
08 18.01 Ю 2 н/о н/о +8.4 +7.5 94 +6 +6 1016.5 962.7
09 18.01 Ю 3 н/о н/о +9.7 +8.9 95 +8 +8 1016.6 963.0
10 18.01 ЮЗ 2 н/о н/о +11.3 +10.2 93 +10 +10 1016.4 963.1
11 18.01 ЮЗ 3 н/о н/о +12.5 +9.1 80 +11 +11 1015.7 962.6
12 18.01 С 3 н/о н/о +12.1 +6.7 70 +11 +11 1015.2 962.1
13 18.01 ЮЗ 3 н/о н/о +14.3 +8.4 68 +14 +14 1014.7 962.0
14 18.01 ЮВ 3 н/о н/о +14.0 +7.5 65 +13 +13 1014.4 961.7
15 18.01 ЮЗ 2 н/о н/о +11.4 +4.8 64 +11 +11 1015.2 961.9
16 18.01 Ю 1 н/о н/о +9.8 +5.5 75 +9 +9 1015.5 962.0
17 18.01 Ю 2 н/о н/о +9.2 +5.3 77 +8 +8 1015.6 962.0
18 18.01 Ю 2 н/о н/о +8.9 +6.3 84 +8 +8 1015.9 962.2 +14.5
19 18.01 Ю 2 н/о н/о +8.2 +5.8 85 +7 +7 1015.9 962.1
20 18.01 ЮЗ 1 н/о н/о +7.5 +5.3 86 +7 +7 1016.2 962.2
21 18.01 СВ 1 н/о н/о +6.5 +4.5 87 +7 +7 1016.6 962.4
22 18.01 ЮЗ 1 н/о н/о +5.2 +3.2 87 +4 +4 1017.1 962.6
23 18.01 С 1 н/о н/о +4.7 +3.2 90 +3 +3 1016.9 962.4
00 19.01 ЮЗ 2 н/о н/о +5.4 +3.9 90 +3 +3 1016.6 962.2
01 19.01 З 1 н/о н/о +4.5 +2.7 88 +3 +3 1016.5 962.0
02 19.01 С 1 н/о н/о +4.0 +2.3 89 +2 +2 1016.6 961.9
03 19.01 штиль 0 н/о н/о +3.4 +1.9 90 +2 +2 1016.6 961.8
04 19.01 ЮВ 1 н/о н/о +3.2 +1.7 90 +2 +2 1016.2 961.4
05 19.01 ЮВ 1 н/о н/о +3.4 +2.1 91 +3 +3 1016.0 961.2
06 19.01 ЮЗ 1 н/о н/о +2.7 +1.4 91 +2 +2 1016.1 961.3 +2.3 301
07 19.01 ЮЗ 1 н/о н/о +4.0 +2.8 92 +2 +2 1016.1 961.5
08 19.01 Ю 1 н/о н/о +6.5 +5.4 93 +5 +5 1015.9 961.8
09 19.01 Ю 1 н/о н/о +8.6 +7.2 91 +8 +8 1016.1 962.4
10 19.01 ЮЗ 1 н/о н/о +10.7 +7.0 78 +10 +10 1015.8 962.5
11 19.01 Ю 3 н/о н/о +13.1 +7.7 70 +12 +12 1014.6 961.7
12 19.01 Ю 2 н/о н/о +13.9 +8.0 68 +13 +13 1013.6 961.0
13 19.01 Ю 2 н/о н/о +12.7 +7.9 73 +12 +12 1013.2 960.4
14 19.01 ЮЗ 2 н/о н/о +13.8 +7.3 65 +14 +14 1012.8 960.2
15 19.01 Ю 1 н/о н/о +12.6 +6.4 66 +13 +13 1013.2 960.2
16 19.01 Ю 1 н/о н/о +9.5 +4.6 71 +10 +10 1013.7 960.2
17 19.01 ЮЗ 1 н/о н/о +8.5 +6.3 86 +9 +9 1014.1 960.4
18 19.01 ЮВ 1 н/о н/о +8.4 +7.0 91 +9 +9 1014.5 960.8 +14.7
19 19.01 ЮВ 1 н/о н/о +7.9 +6.8 93 +7 +7 1014.7 960.9
20 19.01 СЗ 4 н/о н/о +6.3 +4.9 91 +2 +2 1015.1 961.0
21 19.01 С 2 н/о н/о +5.7 +4.6 93 +4 +4 1015.2 960.9
22 19.01 штиль 0 н/о н/о +4.1 +2.9 92 +3 +3 1015.7 961.1
23 19.01 З 1 н/о н/о +3.8 +2.6 92 +3 +3 1015.7 961.0
00 20.01 С 1 н/о н/о +3.1 +2.1 93 +3 +3 1015.3 960.6 1
01 20.01 СЗ 1 н/о н/о +3.1 +2.1 93 +1 +1 1015.5 960.7
02 20.01 С 2 н/о н/о +3.7 +2.8 94 +1 +1 1015.3 960.7
03 20.01 С 2 н/о н/о +3.0 +2.0 93 0 0 1015.2 960.4
04 20.01 С 2 н/о н/о +3.4 +2.4 93 0 0 1015.1 960.4
05 20.01 С 2 н/о н/о +3.8 +2.8 93 +1 +1 1015.0 960.4
06 20.01 С 2 н/о н/о +3.4 +2.1 91 0 0 1015.4 960.8 +2.6 1 104
07 20.01 С 3 н/о н/о +3.8 +2.1 89 0 0 1015.9 961.3
08 20.01 СВ 2 н/о н/о +5.5 +4.0 90 +3 +3 1016.0 961.7
09 20.01 С 2 н/о н/о +7.4 +5.2 86 +6 +6 1016.0 962.1
10 20.01 ЮЗ 1 н/о н/о +10.1 +4.2 67 +10 +10 1015.5 962.1
11 20.01 В 2 н/о н/о +11.7 +4.8 63 +11 +11 1014.9 961.8
12 20.01 Ю 1 н/о н/о +11.0 +2.7 57 +11 +11 1014.7 961.4
13 20.01 Ю 1 н/о н/о +11.1 +3.5 59 +12 +12 1014.2 961.0
14 20.01 СЗ 1 н/о н/о +11.6 +4.5 62 +12 +12 1013.9 960.9
15 20.01 ЮВ 1 н/о н/о +10.5 +4.6 67 +10 +10 1014.2 960.9
16 20.01 штиль 0 н/о н/о +8.5 +2.9 68 +8 +8 1014.7 960.9
17 20.01 СВ 3 н/о н/о +6.1 +2.9 80 +3 +3 1015.3 961.1
18 20.01 СВ 2 н/о н/о +5.5 +3.3 86 +3 +3 1015.7 961.3 +12.4
19 20.01 СВ 3 н/о н/о +5.6 +4.1 90 +2 +2 1015.6 961.3
20 20.01 СВ 2 н/о н/о +5.8 +4.4 91 +4 +4 1015.9 961.6
21 20.01 СВ 1 н/о н/о +6.2 +5.0 92 +5 +5 1016.1 961.9
22 20.01 ЮВ 1 н/о н/о +7.1 +6.0 93 +6 +6 1016.5 962.4
23 20.01 СВ 1 н/о н/о +6.4 +5.2 92 +5 +5 1016.2 962.0
00 21.01 СВ 2 н/о н/о +6.6 +5.5 93 +5 +5 1015.6 961.5
01 21.01 СВ 1 н/о н/о +5.8 +4.7 93 +4 +4 1015.8 961.5
02 21.01 ЮЗ 1 н/о н/о +5.4 +4.2 92 +5 +5 1015.8 961.5
03 21.01 ЮВ 1 н/о н/о +4.9 +3.8 93 +5 +5 1015.7 961.2
04 21.01 СВ 1 н/о н/о +4.4 +3.4 93 +4 +4 1015.5 961.0
05 21.01 СВ 1 н/о н/о +4.3 +3.3 93 +3 +3 1015.5 961.0
06 21.01 ЮЗ 1 н/о н/о +5.7 +4.8 94 +6 +6 1015.3 961.1 +3.9 0
07 21.01 З 1 н/о н/о +7.5 +6.9 96 +6 +6 1015.1 961.2
08 21.01 С 2 н/о н/о +7.6 +7.0 96 +6 +6 1015.3 961.4
09 21.01 С 2 н/о н/о +8.2 +7.6 96 +7 +7 1015.5 961.7
10 21.01 Ю 2 н/о н/о +9.0 +8.5 97 +7 +7 1015.3 961.7
11 21.01 Ю 2 н/о н/о +10.4 +9.8 96 +9 +9 1014.3 960.9
12 21.01 Ю 2 н/о н/о +9.9 +8.6 92 +8 +8 1013.8 960.4
13 21.01 ЮВ 2 н/о н/о +9.6 +8.3 92 +8 +8 1013.3 959.9
14 21.01 Ю 3 н/о н/о +9.4 +8.1 92 +7 +7 1013.4 959.9
15 21.01 Ю 3 н/о н/о +9.3 +8.1 92 +7 +7 1013.2 959.7
16 21.01 Ю 2 н/о н/о +8.6 +7.4 92 +7 +7 1013.1 959.5
17 21.01 Ю 2 н/о н/о +8.0 +6.9 93 +6 +6 1013.0 959.3
18 21.01 Ю 2 н/о н/о +8.1 +7.2 94 +6 +6 1013.0 959.3 +10.6
19 21.01 Ю 2 н/о н/о +8.0 +7.2 95 +6 +6 1012.8 959.1
20 21.01 ЮВ 2 н/о н/о +7.9 +7.1 95 +6 +6 1012.5 958.8
21 21.01 СВ 2 н/о н/о +8.2 +7.6 96 +6 +6 1012.3 958.7
22 21.01 В 3 н/о н/о +8.3 +7.7 96 +6 +6 1012.1 958.5
23 21.01 Ю 4 н/о н/о +8.4 +7.9 97 +5 +5 1011.9 958.3
00 22.01 З 2 н/о н/о +7.2 +6.6 96 +5 +5 1011.6 957.8 2
01 22.01 Ю 3 н/о н/о +7.7 +7.2 97 +5 +5 1010.8 957.2
02 22.01 Ю 5 н/о н/о +8.2 +7.7 97 +4 +4 1009.9 956.4
03 22.01 Ю 4 н/о н/о +8.3 +7.8 97 +5 +5 1009.2 955.7
04 22.01 СВ 3 н/о н/о +8.2 +7.7 97 +6 +6 1008.5 955.1
05 22.01 ЮЗ 3 н/о н/о +8.5 +8.2 98 +6 +6 1008.1 954.7
06 22.01 Ю 3 н/о н/о +8.4 +8.1 98 +6 +6 1007.8 954.4 +7.0 2 706
07 22.01 Ю 4 н/о н/о +8.3 +8.0 98 +5 +5 1007.4 954.0
08 22.01 Ю 3 н/о н/о +8.4 +8.1 98 +6 +6 1007.1 953.8
09 22.01 Ю 3 н/о н/о +8.6 +8.3 98 +6 +6 1007.0 953.7
10 22.01 Ю 3 н/о н/о +8.9 +8.6 98 +6 +6 1006.4 953.2
11 22.01 Ю 4 н/о н/о +9.0 +8.7 98 +6 +6 1005.6 952.5
12 22.01 Ю 4 н/о н/о +9.6 +9.4 99 +7 +7 1004.7 951.7
13 22.01 З 3 н/о н/о +9.2 +8.9 98 +7 +7 1004.3 951.3
14 22.01 С 3 н/о н/о +8.6 +8.3 98 +6 +6 1003.6 950.5
15 22.01 В 3 н/о н/о +8.8 +8.5 98 +6 +6 1003.7 950.6
16 22.01 ЮЗ 3 н/о н/о +8.6 +8.3 98 +6 +6 1003.5 950.4
17 22.01 ЮЗ 4 н/о н/о +6.9 +6.5 97 +3 +3 1004.0 950.5
18 22.01 ЮЗ 4 н/о н/о +5.7 +5.3 97 +2 +2 1004.6 950.9 +10.3 0.2
19 22.01 ЮЗ 4 н/о н/о +5.1 +4.5 96 +1 +1 1004.9 951.1
20 22.01 ЮЗ 3 н/о н/о +5.1 +4.2 94 +2 +2 1005.3 951.5
21 22.01 ЮЗ 2 н/о н/о +4.7 +3.5 92 +2 +2 1005.5 951.6
22 22.01 З 3 н/о н/о +4.5 +3.3 92 +1 +1 1005.6 951.7
23 22.01 Ю 3 н/о н/о +5.1 +3.6 90 +1 +1 1005.7 951.8
00 23.01 ЮЗ 3 н/о н/о +4.6 +2.8 88 +1 +1 1005.3 951.4
01 23.01 ЮЗ 2 н/о н/о +4.2 +2.4 88 +1 +1 1005.2 951.2
02 23.01 ЮЗ 2 н/о н/о +4.0 +2.2 88 +1 +1 1004.7 950.7
03 23.01 ЮЗ 2 н/о н/о +4.0 +2.2 88 +1 +1 1004.0 950.0
04 23.01 ЮЗ 3 н/о н/о +4.2 +2.5 89 0 0 1003.5 949.6
05 23.01 З 2 н/о н/о +3.3 +1.3 87 0 0 1003.2 949.1
06 23.01 ЮЗ 2 н/о н/о +3.3 +1.6 89 0 0 1003.1 949.0 +2.9 404
07 23.01 З 2 н/о н/о +3.3 +1.6 89 +1 +1 1003.1 949.0
08 23.01 З 2 н/о н/о +4.0 +2.5 90 +2 +2 1002.4 948.6
09 23.01 ЮЗ 1 н/о н/о +6.0 +4.6 91 +5 +5 1001.8 948.4
10 23.01 ЮЗ 1 н/о н/о +7.0 +4.4 84 +6 +6 1001.3 948.0
11 23.01 ЮЗ 1 н/о н/о +7.8 +4.7 81 +7 +7 999.9 946.9
12 23.01 ЮЗ 1 н/о н/о +8.8 +4.2 73 +8 +8 998.6 945.8
13 23.01 Ю 1 н/о н/о +8.7 +2.6 66 +8 +8 997.3 944.5
14 23.01 З 1 н/о н/о +8.4 +2.3 65 +8 +8 996.4 943.6
15 23.01 С 1 н/о н/о +7.4 +1.6 67 +7 +7 996.5 943.5
16 23.01 С 1 н/о н/о +5.9 +1.2 72 +5 +5 996.3 943.1
17 23.01 СВ 2 н/о н/о +4.9 +1.0 76 +2 +2 996.4 943.0
18 23.01 СВ 2 н/о н/о +4.7 +1.7 81 +3 +3 996.4 942.9 +9.2
19 23.01 С 2 н/о н/о +4.3 +1.3 81 +2 +2 996.2 942.7
20 23.01 СВ 2 н/о н/о +4.0 +0.6 78 +2 +2 996.3 942.7
21 23.01 С 2 н/о н/о +3.8 +0.3 78 +1 +1 996.1 942.5

 

Местоположение метеостанции Мартина-Франка (Италия): широта 40.63 долгота 17.22 высота над уровнем моря 413 м.

В архиве по умолчанию представлена погода в Мартина-Франка за последнюю неделю. Архивные данные за месяц целиком и за предыдущие месяцы, начиная с января 2011 года, Вы можете получить, выбрав интересующий диапазон дат из раскрывающегося списка и нажав кнопку "Ввод!".


*Определитесь, кто Вы:
робот инопланетянин человек

Внимание! Время в таблицах - всемирное. Для получения местного времени необходимо прибавить поправку, которая равна 1 ч.

Смотрите также архив погоды в соседних городах и на ближайших метеорологических станциях:

Погода в Джоя-дель-Колле (Италия) (29 км)
Погода в Джинозе (Италия) (36 км)
Погода в Матере (Италия) (47 км)
Погода в Бари (Италия) (62 км)
Погода в Бриндиси (Италия) (62 км)
Погода в Бари аэропорту (Италия) (67 км)
Погода в Лечче (Италия) (90 км)
Погода в Латронико (Италия) (119 км)
Погода в Отранто (Италия) (122 км)
Погода в Санта-Мария-ди-Леуке (Италия) (132 км)

Пояснения к столбцам:

Ветер - указаны скорость ветра в м/с - средняя за 10 мин, порывы в срок и между сроками (в фигурных скобках) и направление, откуда дует ветер: С - северный, СВ - северо-восточный, В - восточный, ЮВ - юго-восточный, Ю - южный, ЮЗ - юго-западный, З - западный, СЗ - северо-западный.
Видимость - горизонтальная дальность видимости в метрах или километрах. При видимости от 1 до 10 км при отсутствии осадков обычно наблюдается дымка, при ухудшении видимости до 1 км и менее - туман. В сухую погоду видимость может ухудшаться дымом, пылью или мглою.
Явления - указаны атмосферные явления, наблюдавшиеся в срок или в последний час перед сроком; фигурными скобками обозначены явления, наблюдавшиеся между сроками (за 1-3 часа до срока); квадратными скобками обозначены град или гололедные отложения с указанием их диаметра в мм.
Облачность - указаны через наклонную черту общая и нижняя облачность в баллах и высота нижней границы облаков в метрах; квадратными скобками обозначены формы облаков: Ci - перистые, Cs - перисто-слоистые, Cc - перисто-кучевые, Ac - высококучевые, As - высокослоистые, Sc - слоисто-кучевые, Ns - слоисто-дождевые, Cu - кучевые, Cb - кучево-дождевые. Подробнее классификацию облаков см. в Атласе облаков (PDF).
T - Температура воздуха - температура, измеренная на высоте 2 м над землей.
Td - Температура точки росы - температура, при понижении до которой содержащийся в воздухе водяной пар достигнет насыщения.
f - Относительная влажность воздуха - влажноcть воздуха, измеренная на высоте 2 м над землей.
Te - Эффективная температура - температура, которую ощущает одетый по сезону человек в тени. Характеристика душности погоды. При расчете учитывается влияние влажности воздуха и скорости ветра на теплоощущения человека.
Tes - Эффективная температура на солнце - температура, которую ощущает человек, с поправкой на солнечный нагрев. Характеристика знойности погоды. Зависит от высоты солнца над горизонтом, облачности и скорости ветра. Ночью, в пасмурную погоду, а также при ветре 12 м/с и более поправка равна нулю.
P - Атмосферное давление - приведенное к уровню моря атмосферное давление.
Po - Атмосферное давление - измеренное на уровне метеостанции атмосферное давление.
Tmin - Минимальная температура - минимум температуры воздуха на высоте 2 м над землей.
Tmax - Максимальная температура - максимум температуры воздуха на высоте 2 м над землей.
R - Количество осадков - Количество выпавших осадков за период времени, мм. При наведении курсора мыши на число - период времени, за который выпало указанное количество осадков.
R24 - Количество осадков - Количество выпавших осадков за 24 часа, мм.
S - Снежный покров - Высота снежного покрова, см. При наведении курсора мыши на число - состояние снежного покрова и степень покрытия местности в баллах.